This demonstration page uses our WeatherBlox Daily Observations layout. Learn more.

Left ArrowRight Arrow

34.02893, -84.19858

Hourly Observations for January 2, 2018

Temp ( °F °C ) Dew Point ( °F °C ) Humidity (%) Winds ( mph kmh ) Pressure ( in mb ) Visibility ( mi km ) Precip ( " mm )
12:53 am 00:53 Clear 16 -8.9 4 -15.6 59 59 N 6 9 30.59 1036 10 16 0.00 0.00
1:53 am 01:53 Clear 15 -9.4 4 -15.6 61 61 NNW 5 7 30.59 1036 10 16 0.00 0.00
2:53 am 02:53 Clear 14 -10 4 -15.6 64 64 NW 3 6 30.60 1036 10 16 0.00 0.00
3:53 am 03:53 Clear 13 -10.6 5 -15 70 70 Calm 30.60 1036 10 16 0.00 0.00
4:53 am 04:53 Clear 14 -10 4 -15.6 64 64 WNW 3 6 30.61 1037 10 16 0.00 0.00
5:53 am 05:53 Clear 12 -11.1 5 -15 73 73 Calm 30.62 1037 10 16 0.00 0.00
6:53 am 06:53 Clear 12 -11.1 4 -15.6 70 70 N 5 7 30.64 1038 10 16 0.00 0.00
7:53 am 07:53 Sunny 11 -11.7 5 -15 77 77 N 3 6 30.66 1038 10 16 0.00 0.00
8:53 am 08:53 Sunny 16 -8.9 6 -14.4 65 65 NNE 6 9 30.66 1038 10 16 0.00 0.00
9:53 am 09:53 Sunny 21 -6.1 7 -13.9 54 54 VRB 3 6 30.66 1038 10 16 0.00 0.00
10:53 am 10:53 Sunny 25 -3.9 6 -14.4 44 44 NE 6 9 30.65 1038 10 16 0.00 0.00
11:53 am 11:53 Sunny 28 -2.2 7 -13.9 41 41 VRB 6 9 30.61 1037 N/A 0.00 0.00
12:53 pm 12:53 Sunny 30 -1.1 6 -14.4 36 36 NW 6 9 30.56 1035 10 16 0.00 0.00
1:53 pm 13:53 Sunny 33 0.6 5 -15 30 30 NNW 5 7 30.53 1034 10 16 0.00 0.00
2:53 pm 14:53 Sunny 33 0.6 3 -16.1 28 28 Calm 30.51 1033 N/A 0.00 0.00
3:53 pm 15:53 Sunny 35 1.7 1 -17.2 23 23 NNW 3 6 30.50 1033 N/A 0.00 0.00
4:53 pm 16:53 Sunny 34 1.1 1 -17.2 24 24 Calm 30.48 1032 10 16 0.00 0.00
5:53 pm 17:53 Clear 29 -1.7 3 -16.1 33 33 Calm 30.48 1032 10 16 0.00 0.00
6:53 pm 18:53 Clear 26 -3.3 5 -15 40 40 Calm 30.46 1032 10 16 0.00 0.00
7:53 pm 19:53 Clear 27 -2.8 3 -16.1 35 35 Calm 30.46 1032 10 16 0.00 0.00
8:53 pm 20:53 Clear 25 -3.9 5 -15 42 42 Calm 30.45 1031 10 16 0.00 0.00
9:53 pm 21:53 Clear 26 -3.3 4 -15.6 38 38 E 3 6 30.43 1031 10 16 0.00 0.00
10:53 pm 22:53 Clear 26 -3.3 4 -15.6 38 38 E 3 6 30.42 1030 10 16 0.00 0.00
11:53 pm 23:53 Clear 26 -3.3 4 -15.6 38 38 Calm 30.41 1030 10 16 0.00 0.00

Powered by AerisWeather